User: anonymous   Login
Location: Bogis-Bossey
(46.3500°N, 6.1667°E)
Time: 23:06:20
(UTC+00:00)
Language:

ERS-1 Rocket - Orbit

View from above orbital plane
View from above orbital plane
View from above satellite
View from above satellite

Ground track
Ground track

The orbit data is extracted from the following two-line orbital elements,

1 21610U 91050F   22334.20364879  .00000189  00000-0  71998-4 0  9994
2 21610  98.3640  40.3438 0004367  90.2499 269.9190 14.41156715646701
Epoch (UTC): 30 November 2022 04:53:15
Eccentricity: 0.0004367
inclination: 98.3640°
perigee height: 751 km
apogee height: 758 km
right ascension of ascending node: 40.3438°
argument of perigee: 90.2499°
revolutions per day: 14.41156715
mean anomaly at epoch: 269.9190°
orbit number at epoch: 64670

The dashed part of the orbit path shows where the satellite is in the earth's shadow,  

DLR